Погода в Гремячеве

Россия / Орловская область     52°29′08″N   36°10′05″E
темп.,
°C
ветер,
м/с
пор.,
м/с
влажн.,
%
обл.,
%
осадки,
мм/ч
давл.,
гПа
погр.,
м
13 июня, вс
вс1300:00+14юз228915 0.0 100810
03:00+13юз22940 0.0 100817
06:00+14юз24961 0.0 1008119
09:00+18юз23829 0.0 1008503
12:00+21ю45656 0.1 10081241
15:00+22ююз56696 0.8 10081260
18:00+21ююз348095 1.4 1007766
21:00+17ю349238 2.6 100949
14 июня, пн
пн1400:00+15ююз3393100 0.2 100939
03:00+14ю229155 0.2 101117
06:00+15ю23915 0.0 101290
09:00+20ю22778 0.0 1013410
12:00+23всв00645 0.0 10141067
15:00+24всв115913 0.1 10141480
18:00+23всв227366 0.4 1014210
21:00+19в118286 0.8 101411
15 июня, вт
вт1500:00+17ссв229075 4.6 101513
03:00+16св229161 5.5 101411
06:00+17св2393100 0.0 101484
09:00+21с238295 0.0 1014390
12:00+23ссв337399 1.2 1013930
15:00+25ссв226437 1.3 10121387
18:00+24св127493 0.6 1011682
21:00+20ююв118286 1.3 101111
16 июня, ср
ср1600:00+18зсз1190100 3.3 101013
03:00+17ссз229067 3.3 101022
06:00+17с239288 0.0 101188
09:00+20с3486100 0.3 1011309
12:00+22с567993 1.0 1012499
15:00+23ссв5677100 3.9 1013853
18:00+21ссв4685100 3.4 1014452
21:00+18ссв4119224 3.9 1015252
17 июня, чт
чт1700:00+16св412940 0.0 1017304
03:00+15св512950 0.0 1018307
06:00+15всв514890 0.0 1020426
09:00+18св611700 0.0 1021618
12:00+20всв79650 0.0 10221121
15:00+21всв68640 0.0 10221343
18:00+20св69740 0.0 1023970
21:00+15св411880 0.0 1024286